0 HST 1 20580U 90037B 25260.07596046 .00006939 00000-0 25136-3 0 9993 2 20580 28.4679 141.6244 0002538 9.5089 350.5553 15.26344280746732 0 ISS (ZARYA) 1 25544U 98067A 25260.12361477 .00008550 00000-0 15572-3 0 9997 2 25544 51.6329 211.3907 0004353 348.5756 11.5133 15.50345634529426 0 CXO 1 25867U 99040B 25259.35019206 .00000941 00000-0 00000-0 0 9993 2 25867 51.3649 125.8051 8285650 310.4265 0.3581 0.37804868 16283